| time (UTC) | temp F | wind direction | speed MPH | gust MPH | rain 1hr in | rain 24hr in | rain mn in | humidity % | barometer mb |
| 20260507160935 | 51 | -1 | 6.0 | 8.0 | 0.00 | 0.00 | 0.01 | 8 | 1001.7 |
| 20260507160427 | 51 | -1 | 6.0 | 9.0 | 0.00 | 0.00 | 0.01 | 9 | 1000.9 |
| 20260507155921 | 51 | 315 | 8.0 | 13.0 | 0.00 | 0.00 | 0.01 | 9 | 1001.6 |
| 20260507155413 | 50 | -1 | 9.0 | 13.0 | 0.00 | 0.00 | 0.01 | 9 | 1000.4 |
| 20260507154907 | 51 | -1 | 9.0 | 14.0 | 0.00 | 0.00 | 0.01 | 9 | 1000.1 |
| 20260507154359 | 51 | -1 | 9.0 | 19.0 | 0.00 | 0.00 | 0.01 | 9 | 1000.3 |
| 20260507153851 | 51 | -1 | 10.0 | 15.0 | 0.00 | 0.00 | 0.01 | 9 | 999.6 |
| 20260507153344 | 51 | -1 | 11.0 | 18.0 | 0.00 | 0.00 | 0.01 | 9 | 998.5 |
| 20260507152836 | 52 | -1 | 8.0 | 11.0 | 0.00 | 0.00 | 0.01 | 8 | 1001.7 |
| 20260507152329 | 52 | -1 | 7.0 | 11.0 | 0.00 | 0.00 | 0.01 | 8 | 1001.6 |
| 20260507151821 | 52 | -1 | 7.0 | 12.0 | 0.00 | 0.00 | 0.01 | 8 | 1001.6 |
| 20260507151314 | 52 | -1 | 6.0 | 8.0 | 0.00 | 0.00 | 0.01 | 8 | 1002.3 |
| 20260507150806 | 52 | -1 | 6.0 | 10.0 | 0.00 | 0.00 | 0.01 | 8 | 999.8 |
| 20260507150259 | 52 | 225 | 5.0 | 10.0 | 0.00 | 0.00 | 0.01 | 8 | 1000.4 |
| 20260507145751 | 52 | -1 | 8.0 | 12.0 | 0.00 | 0.00 | 0.01 | 7 | 1004.2 |
| 20260507145244 | 52 | -1 | 10.0 | 17.0 | 0.00 | 0.00 | 0.01 | 8 | 998.7 |
| 20260507144736 | 52 | -1 | 9.0 | 15.0 | 0.00 | 0.00 | 0.01 | 8 | 999.4 |
| 20260507144228 | 51 | -1 | 9.0 | 13.0 | 0.00 | 0.00 | 0.01 | 8 | 1000.4 |
| 20260507143721 | 51 | -1 | 8.0 | 16.0 | 0.00 | 0.00 | 0.01 | 8 | 1000.9 |
| 20260507143212 | 51 | -1 | 10.0 | 15.0 | 0.00 | 0.00 | 0.01 | 9 | 1000.4 |
| 20260507142706 | 50 | 225 | 11.0 | 16.0 | 0.00 | 0.00 | 0.01 | 9 | 999.1 |
| 20260507142159 | 50 | -1 | 11.0 | 19.0 | 0.00 | 0.00 | 0.01 | 9 | 999.4 |
| 20260507141651 | 50 | 225 | 12.0 | 20.0 | 0.00 | 0.00 | 0.01 | 8 | 1000.9 |
| 20260507141145 | 50 | -1 | 13.0 | 20.0 | 0.00 | 0.00 | 0.01 | 9 | 998.9 |
| 20260507140637 | 50 | -1 | 14.0 | 21.0 | 0.00 | 0.00 | 0.01 | 8 | 998.4 |
| 20260507140130 | 50 | 225 | 14.0 | 20.0 | 0.00 | 0.00 | 0.01 | 9 | 998.1 |
| 20260507135622 | 51 | 225 | 16.0 | 25.0 | 0.00 | 0.00 | 0.01 | 8 | 999.1 |
| 20260507135115 | 51 | -1 | 18.0 | 33.0 | 0.00 | 0.00 | 0.01 | 8 | 998.1 |
| 20260507134607 | 54 | -1 | 13.0 | 28.0 | 0.00 | 0.00 | 0.00 | 8 | 997.2 |
| 20260507134059 | 54 | -1 | 12.0 | 21.0 | 0.00 | 0.00 | 0.00 | 7 | 996.2 |
| 20260507133551 | 55 | -1 | 13.0 | 21.0 | 0.00 | 0.00 | 0.00 | 7 | 994.1 |
| 20260507133044 | 55 | 225 | 11.0 | 21.0 | 0.00 | 0.00 | 0.00 | 7 | 998.1 |
| 20260507132537 | 55 | -1 | 13.0 | 21.0 | 0.00 | 0.00 | 0.00 | 7 | 997.8 |
| 20260507132030 | 54 | -1 | 8.0 | 13.0 | 0.00 | 0.00 | 0.00 | 7 | 1001.0 |
| 20260507131522 | 54 | -1 | 10.0 | 17.0 | 0.00 | 0.00 | 0.00 | 7 | 998.7 |
| 20260507131015 | 54 | 225 | 16.0 | 27.0 | 0.00 | 0.00 | 0.00 | 7 | 998.6 |
| 20260507130507 | 55 | -1 | 14.0 | 22.0 | 0.00 | 0.00 | 0.00 | 7 | 993.7 |
| 20260507130000 | 56 | 225 | 16.0 | 23.0 | 0.00 | 0.00 | 0.00 | 7 | 993.1 |
| 20260507125453 | 56 | -1 | 13.0 | 22.0 | 0.00 | 0.00 | 0.00 | 6 | 995.3 |
| 20260507124946 | 56 | -1 | 14.0 | 20.0 | 0.00 | 0.00 | 0.00 | 7 | 992.9 |
| 20260507124439 | 55 | -1 | 11.0 | 17.0 | 0.00 | 0.00 | 0.00 | 6 | 996.8 |
| 20260507123931 | 55 | 225 | 11.0 | 17.0 | 0.00 | 0.00 | 0.00 | 6 | 996.7 |
| 20260507123424 | 55 | -1 | 10.0 | 14.0 | 0.00 | 0.00 | 0.00 | 7 | 994.1 |
| 20260507122917 | 55 | -1 | 13.0 | 20.0 | 0.00 | 0.00 | 0.00 | 7 | 994.2 |
| 20260507122408 | 55 | 225 | 10.0 | 21.0 | 0.00 | 0.00 | 0.00 | 6 | 996.0 |
| 20260507121900 | 55 | -1 | 14.0 | 21.0 | 0.00 | 0.00 | 0.00 | 6 | 995.4 |
| 20260507121352 | 56 | 225 | 13.0 | 20.0 | 0.00 | 0.00 | 0.00 | 7 | 995.0 |
| 20260507120845 | 56 | 270 | 14.0 | 21.0 | 0.00 | 0.00 | 0.00 | 7 | 993.5 |
| 20260507120337 | 55 | -1 | 14.0 | 23.0 | 0.00 | 0.00 | 0.00 | 7 | 992.5 |
| 20260507115830 | 56 | 225 | 10.0 | 18.0 | 0.00 | 0.00 | 0.00 | 6 | 994.7 |
| 20260507115323 | 55 | -1 | 13.0 | 19.0 | 0.00 | 0.00 | 0.00 | 7 | 991.1 |
| 20260507114816 | 55 | -1 | 13.0 | 20.0 | 0.00 | 0.00 | 0.00 | 6 | 995.8 |
| 20260507114309 | 54 | -1 | 12.0 | 20.0 | 0.00 | 0.00 | 0.00 | 6 | 995.3 |
| 20260507113802 | 54 | 225 | 9.0 | 16.0 | 0.00 | 0.00 | 0.00 | 6 | 995.7 |
| 20260507113254 | 54 | -1 | 13.0 | 19.0 | 0.00 | 0.00 | 0.00 | 6 | 995.9 |
| 20260507112747 | 54 | 225 | 14.0 | 22.0 | 0.00 | 0.00 | 0.00 | 6 | 994.5 |
| 20260507112240 | 54 | -1 | 14.0 | 20.0 | 0.00 | 0.00 | 0.00 | 6 | 996.6 |
| 20260507111732 | 54 | 225 | 14.0 | 21.0 | 0.00 | 0.00 | 0.00 | 7 | 995.6 |
| 20260507111225 | 54 | -1 | 16.0 | 24.0 | 0.00 | 0.00 | 0.00 | 7 | 992.5 |
| 20260507110717 | 54 | -1 | 14.0 | 22.0 | 0.00 | 0.00 | 0.00 | 7 | 993.9 |
| 20260507110210 | 54 | -1 | 15.0 | 25.0 | 0.00 | 0.00 | 0.00 | 6 | 994.8 |
| 20260507105703 | 54 | -1 | 16.0 | 22.0 | 0.00 | 0.00 | 0.00 | 7 | 993.1 |
| 20260507105156 | 54 | -1 | 18.0 | 26.0 | 0.00 | 0.00 | 0.00 | 7 | 994.8 |
| 20260507104649 | 54 | -1 | 15.0 | 21.0 | 0.00 | 0.00 | 0.00 | 6 | 995.8 |
| 20260507104142 | 54 | -1 | 14.0 | 23.0 | 0.00 | 0.00 | 0.00 | 7 | 991.8 |
| 20260507103634 | 54 | -1 | 13.0 | 21.0 | 0.00 | 0.00 | 0.00 | 7 | 995.2 |
| 20260507103126 | 53 | -1 | 15.0 | 23.0 | 0.00 | 0.00 | 0.00 | 7 | 993.8 |
| 20260507102619 | 53 | -1 | 13.0 | 20.0 | 0.00 | 0.00 | 0.00 | 7 | 995.9 |
| 20260507102111 | 53 | -1 | 13.0 | 23.0 | 0.00 | 0.00 | 0.00 | 7 | 992.0 |
| 20260507101604 | 54 | -1 | 14.0 | 23.0 | 0.00 | 0.00 | 0.00 | 7 | 992.0 |
| 20260507101056 | 54 | -1 | 13.0 | 21.0 | 0.00 | 0.00 | 0.00 | 7 | 994.6 |
| 20260507100549 | 54 | -1 | 17.0 | 24.0 | 0.00 | 0.00 | 0.00 | 7 | 993.3 |
| 20260507100042 | 54 | -1 | 14.0 | 23.0 | 0.00 | 0.00 | 0.00 | 6 | 994.4 |
| 20260507095536 | 53 | -1 | 15.0 | 22.0 | 0.00 | 0.00 | 0.00 | 7 | 992.1 |
| 20260507095028 | 54 | -1 | 16.0 | 28.0 | 0.00 | 0.00 | 0.00 | 7 | 991.8 |
| 20260507094521 | 54 | -1 | 16.0 | 27.0 | 0.00 | 0.00 | 0.00 | 7 | 993.6 |
| 20260507094013 | 54 | -1 | 17.0 | 26.0 | 0.00 | 0.00 | 0.00 | 7 | 992.3 |
| 20260507093506 | 54 | -1 | 17.0 | 26.0 | 0.00 | 0.00 | 0.00 | 7 | 991.6 |
| 20260507092959 | 54 | -1 | 15.0 | 22.0 | 0.00 | 0.00 | 0.00 | 7 | 995.2 |
| 20260507092452 | 54 | -1 | 14.0 | 21.0 | 0.00 | 0.00 | 0.00 | 7 | 994.8 |
| 20260507091945 | 54 | -1 | 15.0 | 21.0 | 0.00 | 0.00 | 0.00 | 8 | 991.5 |
| 20260507091438 | 54 | -1 | 17.0 | 24.0 | 0.00 | 0.00 | 0.00 | 7 | 994.2 |
| 20260507090931 | 53 | -1 | 17.0 | 25.0 | 0.00 | 0.00 | 0.00 | 7 | 991.4 |
| 20260507090424 | 53 | -1 | 13.0 | 22.0 | 0.00 | 0.00 | 0.00 | 7 | 992.8 |
| 20260507085917 | 53 | -1 | 17.0 | 27.0 | 0.00 | 0.00 | 0.00 | 7 | 992.0 |
| 20260507085410 | 54 | -1 | 17.0 | 30.0 | 0.00 | 0.00 | 0.00 | 7 | 993.9 |
| 20260507084903 | 54 | -1 | 18.0 | 25.0 | 0.00 | 0.00 | 0.00 | 7 | 995.1 |
| 20260507084356 | 54 | -1 | 17.0 | 29.0 | 0.00 | 0.00 | 0.00 | 8 | 991.9 |
| 20260507083849 | 54 | -1 | 16.0 | 25.0 | 0.00 | 0.00 | 0.00 | 7 | 994.9 |
| 20260507083341 | 53 | -1 | 15.0 | 22.0 | 0.00 | 0.00 | 0.00 | 8 | 994.8 |
| 20260507082834 | 53 | -1 | 18.0 | 28.0 | 0.00 | 0.00 | 0.00 | 8 | 992.8 |
| 20260507082327 | 53 | -1 | 17.0 | 27.0 | 0.00 | 0.00 | 0.00 | 7 | 992.8 |
| 20260507081819 | 53 | -1 | 19.0 | 27.0 | 0.00 | 0.00 | 0.00 | 8 | 993.4 |
| 20260507081312 | 54 | -1 | 17.0 | 26.0 | 0.00 | 0.00 | 0.00 | 8 | 995.1 |
| 20260507080804 | 54 | -1 | 16.0 | 24.0 | 0.00 | 0.00 | 0.00 | 8 | 994.1 |
| 20260507080257 | 54 | -1 | 17.0 | 26.0 | 0.00 | 0.00 | 0.00 | 8 | 994.6 |
| 20260507075750 | 53 | -1 | 19.0 | 30.0 | 0.00 | 0.00 | 0.00 | 8 | 993.0 |
| 20260507075243 | 54 | -1 | 20.0 | 29.0 | 0.00 | 0.00 | 0.00 | 8 | 992.5 |
| 20260507074735 | 54 | -1 | 17.0 | 25.0 | 0.00 | 0.00 | 0.00 | 8 | 992.9 |
| 20260507074228 | 54 | -1 | 18.0 | 25.0 | 0.00 | 0.00 | 0.00 | 8 | 994.2 |
| 20260507073721 | 53 | -1 | 18.0 | 28.0 | 0.00 | 0.00 | 0.00 | 8 | 994.1 |
| 20260507073213 | 53 | -1 | 20.0 | 27.0 | 0.00 | 0.00 | 0.00 | 8 | 994.0 |
| 20260507072706 | 53 | -1 | 18.0 | 26.0 | 0.00 | 0.00 | 0.00 | 9 | 994.6 |
| 20260507072158 | 53 | -1 | 20.0 | 32.0 | 0.00 | 0.00 | 0.00 | 8 | 993.4 |
| 20260507071651 | 53 | -1 | 19.0 | 27.0 | 0.00 | 0.00 | 0.00 | 8 | 996.3 |
| 20260507071144 | 52 | -1 | 23.0 | 34.0 | 0.00 | 0.00 | 0.00 | 8 | 993.7 |
| 20260507070636 | 53 | -1 | 19.0 | 28.0 | 0.00 | 0.00 | 0.00 | 8 | 992.4 |
| 20260507070129 | 53 | -1 | 19.0 | 29.0 | 0.00 | 0.00 | 0.00 | 8 | 995.8 |
| 20260507065622 | 53 | -1 | 20.0 | 34.0 | 0.00 | 0.00 | 0.00 | 8 | 994.3 |
| 20260507065114 | 52 | -1 | 19.0 | 29.0 | 0.00 | 0.00 | 0.00 | 8 | 995.3 |
| 20260507064607 | 53 | -1 | 19.0 | 28.0 | 0.00 | 0.00 | 0.00 | 9 | 996.3 |
| 20260507064100 | 53 | -1 | 16.0 | 27.0 | 0.00 | 0.00 | 0.00 | 8 | 995.0 |
| 20260507063552 | 53 | -1 | 17.0 | 27.0 | 0.00 | 0.00 | 0.00 | 8 | 997.2 |
| 20260507063045 | 53 | -1 | 15.0 | 23.0 | 0.00 | 0.00 | 0.00 | 8 | 995.3 |
| 20260507062538 | 52 | -1 | 18.0 | 30.0 | 0.00 | 0.00 | 0.00 | 8 | 995.8 |
| 20260507062032 | 52 | -1 | 21.0 | 31.0 | 0.00 | 0.00 | 0.00 | 9 | 994.4 |
| 20260507061523 | 52 | -1 | 21.0 | 32.0 | 0.00 | 0.00 | 0.00 | 8 | 994.5 |
| 20260507061016 | 52 | -1 | 20.0 | 30.0 | 0.00 | 0.00 | 0.00 | 9 | 997.4 |
| 20260507060507 | 52 | -1 | 21.0 | 33.0 | 0.00 | 0.00 | 0.00 | 9 | 995.8 |
| 20260507055959 | 52 | -1 | 16.0 | 26.0 | 0.00 | 0.00 | 0.00 | 9 | 996.9 |
| 20260507055452 | 52 | -1 | 16.0 | 23.0 | 0.00 | 0.00 | 0.00 | 9 | 996.2 |
| 20260507054944 | 51 | 225 | 15.0 | 24.0 | 0.00 | 0.00 | 0.00 | 9 | 998.1 |
| 20260507054437 | 51 | -1 | 14.0 | 22.0 | 0.00 | 0.00 | 0.00 | 9 | 995.4 |
| 20260507053930 | 51 | -1 | 15.0 | 22.0 | 0.00 | 0.00 | 0.00 | 9 | 995.8 |
| 20260507053423 | 51 | -1 | 17.0 | 25.0 | 0.00 | 0.00 | 0.00 | 9 | 997.3 |
| 20260507052916 | 51 | 225 | 15.0 | 21.0 | 0.00 | 0.00 | 0.00 | 9 | 996.5 |
| 20260507052408 | 51 | 225 | 15.0 | 23.0 | 0.00 | 0.00 | 0.00 | 9 | 996.4 |
| 20260507051901 | 51 | -1 | 17.0 | 24.0 | 0.00 | 0.00 | 0.00 | 9 | 995.7 |
| 20260507051353 | 51 | -1 | 16.0 | 24.0 | 0.00 | 0.00 | 0.00 | 9 | 995.8 |
| 20260507050846 | 51 | -1 | 14.0 | 23.0 | 0.00 | 0.00 | 0.00 | 9 | 996.2 |
| 20260507050339 | 51 | -1 | 14.0 | 19.0 | 0.00 | 0.00 | 0.00 | 9 | 997.3 |
| 20260507045832 | 50 | -1 | 14.0 | 22.0 | 0.00 | 0.00 | 0.00 | 9 | 996.2 |
| 20260507045325 | 50 | -1 | 12.0 | 18.0 | 0.00 | 0.00 | 0.00 | 10 | 996.8 |
| 20260507044818 | 50 | 225 | 11.0 | 17.0 | 0.00 | 0.00 | 0.00 | 9 | 997.4 |
| 20260507044311 | 50 | 225 | 10.0 | 16.0 | 0.00 | 0.00 | 0.00 | 10 | 997.3 |
| 20260507043804 | 50 | 225 | 11.0 | 15.0 | 0.00 | 0.00 | 0.00 | 10 | 998.6 |
| 20260507043257 | 50 | 225 | 12.0 | 21.0 | 0.00 | 0.00 | 0.00 | 10 | 997.3 |
| 20260507042750 | 50 | 225 | 13.0 | 19.0 | 0.00 | 0.00 | 0.00 | 10 | 998.0 |
| 20260507042243 | 50 | 225 | 12.0 | 18.0 | 0.00 | 0.00 | 0.00 | 10 | 997.4 |
| 20260507041736 | 50 | -1 | 10.0 | 15.0 | 0.00 | 0.00 | 0.00 | 10 | 995.5 |
| 20260507041229 | 50 | -1 | 12.0 | 19.0 | 0.00 | 0.00 | 0.00 | 9 | 996.5 |
| 20260507040722 | 50 | 225 | 10.0 | 15.0 | 0.00 | 0.00 | 0.00 | 10 | 995.8 |
| 20260507040215 | 50 | 225 | 11.0 | 16.0 | 0.00 | 0.00 | 0.00 | 9 | 997.6 |
| 20260507035708 | 50 | -1 | 12.0 | 18.0 | 0.00 | 0.00 | 0.00 | 9 | 995.6 |
| 20260507035201 | 50 | 270 | 10.0 | 15.0 | 0.00 | 0.00 | 0.00 | 9 | 996.6 |
| 20260507034653 | 50 | 270 | 9.0 | 15.0 | 0.00 | 0.00 | 0.00 | 9 | 995.7 |
| 20260507034146 | 50 | 225 | 10.0 | 15.0 | 0.00 | 0.00 | 0.00 | 9 | 995.2 |
| 20260507033639 | 50 | 225 | 12.0 | 17.0 | 0.00 | 0.00 | 0.00 | 9 | 994.8 |
| 20260507033132 | 50 | 225 | 13.0 | 21.0 | 0.00 | 0.00 | 0.00 | 9 | 995.3 |
| 20260507032624 | 49 | 225 | 12.0 | 19.0 | 0.00 | 0.00 | 0.00 | 9 | 996.9 |
| 20260507032116 | 49 | -1 | 9.0 | 15.0 | 0.00 | 0.00 | 0.00 | 9 | 996.6 |
| 20260507031608 | 49 | 225 | 9.0 | 13.0 | 0.00 | 0.00 | 0.00 | 10 | 996.2 |
| 20260507031101 | 49 | 225 | 10.0 | 14.0 | 0.00 | 0.00 | 0.00 | 9 | 996.5 |
| 20260507030553 | 49 | 225 | 9.0 | 17.0 | 0.00 | 0.00 | 0.00 | 9 | 996.1 |
| 20260507030046 | 49 | 202 | 11.0 | 16.0 | 0.00 | 0.00 | 0.00 | 9 | 995.3 |
| 20260507025539 | 49 | 225 | 10.0 | 16.0 | 0.00 | 0.00 | 0.00 | 9 | 994.5 |
| 20260507025032 | 49 | -1 | 12.0 | 19.0 | 0.00 | 0.00 | 0.00 | 9 | 995.3 |
| 20260507024525 | 49 | 225 | 14.0 | 20.0 | 0.00 | 0.00 | 0.00 | 9 | 993.7 |
| 20260507024018 | 49 | 225 | 15.0 | 21.0 | 0.00 | 0.00 | 0.00 | 9 | 994.2 |
| 20260507023511 | 49 | 225 | 11.0 | 17.0 | 0.00 | 0.00 | 0.00 | 9 | 996.2 |
| 20260507023004 | 49 | 225 | 12.0 | 17.0 | 0.00 | 0.00 | 0.00 | 9 | 993.9 |
| 20260507022457 | 49 | 225 | 11.0 | 17.0 | 0.00 | 0.00 | 0.00 | 9 | 996.5 |
| 20260507021950 | 49 | 225 | 14.0 | 22.0 | 0.00 | 0.00 | 0.00 | 9 | 994.7 |
| 20260507021443 | 49 | 225 | 15.0 | 20.0 | 0.00 | 0.00 | 0.00 | 9 | 993.8 |
| 20260507020936 | 49 | 225 | 12.0 | 17.0 | 0.00 | 0.00 | 0.00 | 9 | 993.8 |
| 20260507020429 | 49 | 225 | 12.0 | 17.0 | 0.00 | 0.00 | 0.00 | 9 | 994.5 |
| 20260507015922 | 49 | 225 | 10.0 | 16.0 | 0.00 | 0.00 | 0.00 | 9 | 994.8 |
| 20260507015414 | 49 | 225 | 8.0 | 13.0 | 0.00 | 0.00 | 0.00 | 9 | 998.2 |
| 20260507014907 | 50 | -1 | 10.0 | 16.0 | 0.00 | 0.00 | 0.00 | 10 | 995.7 |
| 20260507014400 | 50 | -1 | 12.0 | 19.0 | 0.00 | 0.00 | 0.00 | 10 | 996.1 |
| 20260507013853 | 50 | 225 | 12.0 | 19.0 | 0.00 | 0.00 | 0.00 | 9 | 994.8 |
| 20260507013346 | 50 | 225 | 13.0 | 18.0 | 0.00 | 0.00 | 0.00 | 9 | 994.8 |
| 20260507012838 | 50 | 225 | 11.0 | 17.0 | 0.00 | 0.00 | 0.00 | 9 | 993.8 |
| 20260507012331 | 50 | 225 | 11.0 | 15.0 | 0.00 | 0.00 | 0.00 | 9 | 994.5 |
| 20260507011824 | 50 | 225 | 10.0 | 15.0 | 0.00 | 0.00 | 0.00 | 9 | 993.9 |
| 20260507011316 | 50 | 225 | 8.0 | 13.0 | 0.00 | 0.00 | 0.00 | 9 | 995.0 |
| 20260507010809 | 50 | 225 | 8.0 | 13.0 | 0.00 | 0.00 | 0.00 | 9 | 996.3 |
| 20260507010302 | 50 | 270 | 9.0 | 13.0 | 0.00 | 0.00 | 0.00 | 10 | 995.5 |
| 20260507005755 | 50 | 225 | 11.0 | 17.0 | 0.00 | 0.00 | 0.00 | 10 | 995.1 |
| 20260507005248 | 50 | 225 | 12.0 | 17.0 | 0.00 | 0.00 | 0.00 | 10 | 994.6 |
| 20260507004741 | 50 | 225 | 12.0 | 18.0 | 0.00 | 0.00 | 0.00 | 10 | 996.7 |
| 20260507004234 | 51 | -1 | 13.0 | 21.0 | 0.00 | 0.00 | 0.00 | 10 | 996.0 |
| 20260507003727 | 51 | -1 | 14.0 | 21.0 | 0.00 | 0.00 | 0.00 | 10 | 995.7 |
| 20260507003220 | 51 | -1 | 15.0 | 22.0 | 0.00 | 0.00 | 0.00 | 9 | 996.0 |
| 20260507002712 | 51 | -1 | 12.0 | 19.0 | 0.00 | 0.00 | 0.00 | 10 | 994.3 |
| 20260507002206 | 51 | -1 | 11.0 | 15.0 | 0.00 | 0.00 | 0.00 | 9 | 995.6 |
| 20260507001657 | 51 | -1 | 11.0 | 17.0 | 0.00 | 0.00 | 0.00 | 9 | 995.1 |
| 20260507001150 | 50 | 225 | 8.0 | 12.0 | 0.00 | 0.00 | 0.00 | 9 | 997.0 |
| 20260507000643 | 51 | -1 | 8.0 | 11.0 | 0.00 | 0.00 | 0.00 | 10 | 994.5 |
| 20260507000136 | 51 | 225 | 8.0 | 12.0 | 0.00 | 0.00 | 0.00 | 9 | 994.2 |
| 20260506235629 | 51 | 225 | 6.0 | 9.0 | 0.00 | 0.00 | 0.12 | 8 | 995.2 |
| 20260506235121 | 51 | 225 | 7.0 | 11.0 | 0.00 | 0.00 | 0.12 | 9 | 996.5 |
| 20260506234614 | 51 | 225 | 7.0 | 11.0 | 0.00 | 0.00 | 0.12 | 9 | 997.1 |
| 20260506234107 | 51 | -1 | 7.0 | 11.0 | 0.00 | 0.00 | 0.12 | 9 | 996.8 |
| 20260506233600 | 51 | 225 | 7.0 | 10.0 | 0.00 | 0.00 | 0.12 | 9 | 995.6 |
| 20260506233053 | 51 | -1 | 7.0 | 12.0 | 0.00 | 0.00 | 0.12 | 9 | 995.4 |
| 20260506232546 | 51 | -1 | 6.0 | 9.0 | 0.00 | 0.00 | 0.12 | 9 | 995.4 |
| 20260506232038 | 51 | -1 | 6.0 | 10.0 | 0.00 | 0.00 | 0.12 | 9 | 995.3 |
| 20260506231531 | 51 | -1 | 6.0 | 10.0 | 0.00 | 0.00 | 0.12 | 10 | 993.8 |
| 20260506231024 | 51 | -1 | 7.0 | 10.0 | 0.00 | 0.00 | 0.12 | 9 | 995.1 |
| 20260506230517 | 52 | -1 | 8.0 | 12.0 | 0.00 | 0.00 | 0.12 | 9 | 993.2 |
| 20260506230009 | 52 | -1 | 6.0 | 9.0 | 0.00 | 0.00 | 0.12 | 8 | 996.4 |
| 20260506225501 | 52 | -1 | 7.0 | 13.0 | 0.00 | 0.00 | 0.12 | 9 | 997.5 |
| 20260506224954 | 52 | -1 | 7.0 | 13.0 | 0.00 | 0.00 | 0.12 | 10 | 995.6 |
| 20260506224447 | 52 | -1 | 8.0 | 12.0 | 0.00 | 0.00 | 0.12 | 9 | 996.2 |
| 20260506223939 | 52 | -1 | 9.0 | 14.0 | 0.00 | 0.00 | 0.12 | 10 | 998.1 |
| 20260506223432 | 53 | -1 | 7.0 | 11.0 | 0.00 | 0.00 | 0.12 | 10 | 997.7 |
| 20260506222925 | 53 | -1 | 0.0 | 0.0 | 0.00 | 0.00 | 0.12 | 10 | 996.4 |
| 20260506222418 | 53 | -1 | 0.0 | 0.0 | 0.00 | 0.00 | 0.12 | 9 | 995.3 |
| 20260506221911 | 53 | -1 | 0.0 | 0.0 | 0.00 | 0.00 | 0.12 | 9 | 996.6 |
| 20260506221404 | 53 | -1 | 0.0 | 0.0 | 0.00 | 0.00 | 0.12 | 9 | 995.8 |
| 20260506220856 | 53 | -1 | 0.0 | 0.0 | 0.00 | 0.00 | 0.12 | 9 | 996.2 |
| 20260506220349 | 53 | -1 | 0.0 | 0.0 | 0.00 | 0.00 | 0.12 | 9 | 993.9 |
| 20260506215842 | 53 | 225 | 0.0 | 0.0 | 0.00 | 0.00 | 0.12 | 8 | 996.4 |
| 20260506215335 | 53 | -1 | 0.0 | 0.0 | 0.00 | 0.00 | 0.12 | 9 | 996.8 |
| 20260506214828 | 53 | -1 | 0.0 | 0.0 | 0.00 | 0.00 | 0.12 | 9 | 995.4 |
| 20260506214321 | 53 | -1 | 0.0 | 0.0 | 0.00 | 0.00 | 0.12 | 8 | 996.0 |
| 20260506213813 | 53 | -1 | 6.0 | 8.0 | 0.00 | 0.00 | 0.12 | 9 | 995.5 |
| 20260506213306 | 53 | -1 | 5.0 | 8.0 | 0.00 | 0.00 | 0.11 | 10 | 996.9 |
| 20260506212759 | 53 | -1 | 4.0 | 7.0 | 0.00 | 0.00 | 0.11 | 9 | 996.8 |
| 20260506212251 | 53 | -1 | 7.0 | 13.0 | 0.00 | 0.00 | 0.11 | 9 | 995.2 |
| 20260506211743 | 53 | -1 | 7.0 | 10.0 | 0.00 | 0.00 | 0.10 | 8 | 994.8 |
| 20260506211235 | 54 | -1 | 6.0 | 9.0 | 0.00 | 0.00 | 0.10 | 8 | 995.1 |
| 20260506210727 | 54 | -1 | 6.0 | 10.0 | 0.00 | 0.00 | 0.10 | 8 | 996.2 |
| 20260506210220 | 54 | -1 | 7.0 | 11.0 | 0.00 | 0.00 | 0.10 | 8 | 996.8 |
| 20260506205712 | 54 | -1 | 8.0 | 13.0 | 0.00 | 0.00 | 0.10 | 9 | 995.8 |
| 20260506205205 | 54 | -1 | 12.0 | 16.0 | 0.00 | 0.00 | 0.10 | 9 | 995.9 |
| 20260506204658 | 54 | -1 | 11.0 | 15.0 | 0.00 | 0.00 | 0.10 | 9 | 996.6 |
| 20260506204151 | 54 | -1 | 0.0 | 0.0 | 0.00 | 0.00 | 0.10 | 9 | 995.4 |
| 20260506203644 | 54 | -1 | 0.0 | 0.0 | 0.00 | 0.00 | 0.10 | 8 | 994.0 |
| 20260506203136 | 54 | -1 | 0.0 | 0.0 | 0.00 | 0.00 | 0.10 | 9 | 995.5 |
| 20260506202629 | 54 | -1 | 5.0 | 9.0 | 0.00 | 0.00 | 0.10 | 9 | 994.8 |
| 20260506202121 | 54 | -1 | 8.0 | 17.0 | 0.00 | 0.00 | 0.10 | 8 | 994.0 |
| 20260506201613 | 54 | -1 | 12.0 | 18.0 | 0.00 | 0.00 | 0.10 | 8 | 992.3 |
| 20260506201106 | 54 | -1 | 10.0 | 15.0 | 0.00 | 0.00 | 0.09 | 8 | 993.0 |
| 20260506200558 | 54 | -1 | 9.0 | 14.0 | 0.00 | 0.00 | 0.09 | 8 | 994.6 |
| 20260506200050 | 54 | -1 | 9.0 | 15.0 | 0.00 | 0.00 | 0.09 | 8 | 994.2 |
| 20260506195542 | 54 | -1 | 7.0 | 11.0 | 0.00 | 0.00 | 0.09 | 8 | 994.9 |
| 20260506195035 | 54 | -1 | 9.0 | 15.0 | 0.00 | 0.00 | 0.09 | 8 | 995.4 |
| 20260506194528 | 54 | -1 | 11.0 | 17.0 | 0.00 | 0.00 | 0.09 | 8 | 995.2 |
| 20260506194021 | 55 | -1 | 7.0 | 10.0 | 0.00 | 0.00 | 0.09 | 7 | 993.8 |
| 20260506193513 | 56 | -1 | 0.0 | 0.0 | 0.00 | 0.00 | 0.08 | 7 | 995.1 |
| 20260506193005 | 56 | -1 | 0.0 | 0.0 | 0.00 | 0.00 | 0.08 | 8 | 994.4 |
| 20260506192458 | 55 | -1 | 0.0 | 0.0 | 0.00 | 0.00 | 0.08 | 8 | 994.8 |
| 20260506191950 | 56 | -1 | 0.0 | 0.0 | 0.00 | 0.00 | 0.08 | 8 | 994.7 |
| 20260506191442 | 56 | 0 | 0.0 | 0.0 | 0.00 | 0.00 | 0.08 | 8 | 994.1 |
| 20260506190934 | 56 | -1 | 0.0 | 0.0 | 0.00 | 0.00 | 0.08 | 8 | 993.3 |
| 20260506190427 | 57 | -1 | 3.0 | 5.0 | 0.00 | 0.00 | 0.08 | 8 | 992.7 |
| 20260506185920 | 56 | 0 | 0.0 | 0.0 | 0.00 | 0.00 | 0.08 | 8 | 991.6 |
| 20260506185413 | 56 | -1 | 0.0 | 0.0 | 0.00 | 0.00 | 0.08 | 8 | 993.7 |
| 20260506184904 | 56 | -1 | 0.0 | 0.0 | 0.00 | 0.00 | 0.08 | 9 | 993.7 |
| 20260506184356 | 56 | -1 | 3.0 | 6.0 | 0.00 | 0.00 | 0.08 | 9 | 993.6 |
| 20260506183849 | 56 | -1 | 5.0 | 7.0 | 0.00 | 0.00 | 0.08 | 9 | 993.5 |
| 20260506183342 | 56 | -1 | 5.0 | 9.0 | 0.00 | 0.00 | 0.08 | 9 | 993.2 |
| 20260506182834 | 57 | -1 | 6.0 | 10.0 | 0.00 | 0.00 | 0.08 | 9 | 992.4 |
| 20260506182326 | 57 | -1 | 8.0 | 16.0 | 0.00 | 0.00 | 0.08 | 9 | 992.5 |
| 20260506181819 | 57 | -1 | 7.0 | 15.0 | 0.00 | 0.00 | 0.08 | 8 | 991.6 |
| 20260506181312 | 57 | -1 | 10.0 | 15.0 | 0.00 | 0.00 | 0.08 | 8 | 991.2 |
| 20260506180803 | 58 | -1 | 7.0 | 13.0 | 0.00 | 0.00 | 0.08 | 8 | 991.1 |
| 20260506180256 | 58 | -1 | 9.0 | 13.0 | 0.00 | 0.00 | 0.08 | 8 | 991.5 |
| 20260506175749 | 58 | -1 | 8.0 | 13.0 | 0.00 | 0.00 | 0.08 | 8 | 990.7 |
| 20260506175242 | 58 | -1 | 4.0 | 8.0 | 0.00 | 0.00 | 0.08 | 8 | 991.2 |
| 20260506174735 | 58 | -1 | 5.0 | 9.0 | 0.00 | 0.00 | 0.08 | 8 | 992.2 |
| 20260506174227 | 57 | -1 | 6.0 | 12.0 | 0.00 | 0.00 | 0.08 | 8 | 993.7 |
| 20260506173720 | 57 | -1 | 0.0 | 0.0 | 0.00 | 0.00 | 0.08 | 9 | 993.6 |
| 20260506173212 | 57 | -1 | 4.0 | 7.0 | 0.00 | 0.00 | 0.08 | 8 | 994.7 |
| 20260506172704 | 57 | -1 | 6.0 | 8.0 | 0.00 | 0.00 | 0.08 | 9 | 994.8 |
| 20260506172157 | 58 | -1 | 0.0 | 0.0 | 0.00 | 0.00 | 0.08 | 9 | 993.9 |
| 20260506171649 | 58 | -1 | 0.0 | 0.0 | 0.00 | 0.00 | 0.08 | 9 | 993.3 |
| 20260506171141 | 58 | -1 | 4.0 | 8.0 | 0.00 | 0.00 | 0.08 | 8 | 993.2 |
| 20260506170634 | 58 | -1 | 5.0 | 8.0 | 0.00 | 0.00 | 0.08 | 8 | 993.0 |
| 20260506170127 | 58 | -1 | 5.0 | 9.0 | 0.00 | 0.00 | 0.08 | 8 | 993.1 |
| 20260506165620 | 58 | -1 | 6.0 | 10.0 | 0.00 | 0.00 | 0.08 | 8 | 993.1 |
| 20260506165112 | 58 | -1 | 5.0 | 9.0 | 0.00 | 0.00 | 0.08 | 8 | 992.6 |
| 20260506164605 | 58 | -1 | 6.0 | 9.0 | 0.00 | 0.00 | 0.08 | 7 | 993.1 |
| 20260506164057 | 58 | -1 | 5.0 | 8.0 | 0.00 | 0.00 | 0.08 | 8 | 992.4 |
| 20260506163549 | 59 | -1 | 6.0 | 8.0 | 0.00 | 0.00 | 0.08 | 8 | 991.9 |
| 20260506163042 | 59 | -1 | 6.0 | 10.0 | 0.00 | 0.00 | 0.08 | 8 | 991.9 |
| 20260506162535 | 58 | -1 | 6.0 | 11.0 | 0.00 | 0.00 | 0.08 | 8 | 993.6 |
| 20260506162028 | 59 | -1 | 10.0 | 13.0 | 0.00 | 0.00 | 0.08 | 8 | 989.8 |
| 20260506161521 | 58 | -1 | 9.0 | 13.0 | 0.00 | 0.00 | 0.08 | 6 | 987.0 |